SCP
-0 -0 -0 -0 0 0 -0 -0 -0 -0 -0 -0 -0 -0 -0 -0 -0 -0 -0 0 0 0 0 -0 0 0 0 0 0 0 -0 -0 -0 -0 -0 0 0 -0 -0 -0 -0 -0 -0
-0 -0 -0 -0 0 0 0 -0 -0 -0 -0 -0 -0 -0 -0 -0 -0 -0 -0 -0 0 0 -0 -0 0 0 0 0 0 0 -0 -0 -0 -0 0 0 0 0 0 -0 -0 -0 -0
-0 -0 -0 -0 -0 0 0 -0 -0 -0 -0 -0 -0 -0 -0 -0 -0 -0 -0 -0 -0 -0 -0 -0 0 0 0 0 0 -0 -0 -0 -0 -0 0 0 0 0 0 -0 -0 -0 -0
-0 -0 -0 -0 -0 -0 -0 -0 -0 -0 -0 -0 -0 -0 -0 -0 -0 -0 0 -0 -0 -0 -0 -0 0 0 0 0 0 -0 -0 -0 -0 -0 0 0 0 0 0 0 -0 -0 0
-0 -0 -0 -0 -0 -0 -0 -0 -0 -0 -0 -0 -0 -0 -0 0 0 0 0 -0 -0 -0 0 0 0 0 0 0 -0 -0 -0 -0 -0 0 -0 -0 -0 0 0 0 0 0 0
-0 -0 -0 -0 -0 -0 -0 -0 -0 -0 -0 -0 -0 -0 0 0 0 0 0 0 0 0 0 0 0 0 0 0 -0 -0 -0 -0 -0 0 0 -0 -0 0 0 0 0 0 0
-0 -0 -0 -0 -0 -0 -0 -0 -0 -0 -0 -0 -0 0 0 0 0 0 0 0 0 0 0 0 0 0 0 0 0 0 -0 -0 -0 -0 -0 -0 0 0 0 0 0 0 0
0 0 -0 0 0 0 -0 0 0 0 0 0 0 0 0 0 0 0 0 0 0 0 0 0 0 0 0 0 0 0 0 -0 -0 -0 -0 -0 0 0 0 0 0 0 0
0 0 0 0 0 0 0 0 0 0 0 0 0 0 0 0 0 0 0 0 0 0 0 0 0 0 0 0 0 0 0 0 -0 -0 -0 0 0 0 0 0 0 0 0
0 0 0 0 0 0 0 0 0 0 0 0 0 0 0 0 0 0 0 0 0 0 0 0 0 0 0 0 0 0 0 -0 0 -0 0 0 0 0 0 0 0 0 0
0 0 0 0 0 0 0 0 0 0 0 0 0 0 0 0 0 0 0 0 0 0 0 0 0 0 0 0 0 0 0 0 -0 0 0 0 0 0 0 0 0 0 0
0 0 0 0 0 0 0 0 0 0 0 0 0 0 0 0 0 0 0 0 0 0 0 0 0 0 0 0 0 0 0 0 0 0 0 0 0 0 0 0 0 0 0
0 0 0 0 0 -0 0 0 0 0 0 0 0 0 0 0 0 0 0 0 0 0 0 0 0 0 0 0 0 0 0 0 0 0 0 0 0 0 0 0 0 0 0
0 0 0 0 0 -0 0 0 0 0 0 0 0 0 0 0 0 0 0 0 0 0 0 0 0 0 0 0 0 0 0 0 0 0 0 1 0 0 0 0 0 0 0
0 0 0 0 1 0 0 0 0 0 0 0 1 1 0 0 0 0 0 0 0 0 0 0 0 0 0 0 0 0 0 0 0 0 0 1 1 1 1 0 0 0 1
1 1 1 0 1 1 1 1 1 1 1 1 1 1 1 0 1 0 1 0 0 0 0 0 0 1 1 1 0 0 0 0 0 0 0 0 1 1 1 1 1 1 1
0 0 1 1 1 1 1 1 2 1 1 1 1 1 1 1 1 1 0 0 0 0 0 0 0 1 1 0 0 0 0 0 1 1 1 0 1 1 1 1 1 1 1
0 0 0 0 1 2 2 2 2 2 2 1 1 1 1 1 1 1 0 1 0 1 1 1 1 1 1 1 1 1 1 1 1 1 1 1 1 1 1 1 2 2 2
0 0 0 0 0 2 3 2 2 2 2 1 2 2 1 1 1 2 1 1 2 1 1 1 1 1 1 1 1 1 1 1 1 0 1 1 1 1 1 2 2 2 2
0 0 0 0 2 2 2 3 1 1 1 1 2 2 2 2 1 2 1 1 2 1 1 1 3 2 2 1 1 1 2 2 1 1 1 1 1 2 2 2 2 2 1
0 0 0 0 3 2 1 1 1 1 1 1 2 3 3 2 1 2 1 2 2 2 3 3 2 2 1 1 1 0 1 1 2 1 1 1 1 1 2 1 4 2 1
0 0 0 0 2 3 2 2 1 1 1 1 1 3 2 1 2 2 2 3 3 1 2 1 1 1 0 1 1 0 0 0 0 1 1 1 1 1 1 1 2 2 3
0 0 0 0 1 3 3 2 2 2 2 2 2 2 2 2 2 3 3 2 3 2 1 2 2 2 1 1 2 1 1 0 1 0 1 1 1 1 1 1 2 2 3
0 0 0 0 0 1 2 2 3 2 1 1 2 2 3 3 3 2 3 3 3 3 2 2 2 2 1 1 0 1 2 2 1 1 1 1 1 1 2 2 2 2 2
0 0 0 0 1 2 2 2 3 2 2 2 2 8 6 4 4 3 3 3 2 2 2 1 1 2 1 1 0 0 1 0 1 1 0 0 1 1 0 1 1 2 1
0 1 1 1 1 1 2 2 3 5 4 5 6 7 6 4 2 1 1 1 2 2 1 2 2 1 2 2 1 1 0 0 0 0 0 0 0 0 0 1 1 2 1
Wind_Speed_500mb
29 39 40 35 36 33 29 25 23 28 29 28 27 23 20 19 19 23 26 29 28 24 20 16 14 13 12 13 14 16 16 15 17 20 22 24 22 21 21 21 29 5 9
37 37 37 37 37 34 30 26 26 32 32 28 25 19 16 16 18 22 25 25 23 20 16 12 9 10 10 11 12 13 13 14 15 19 21 24 27 21 19 18 15 11 11
36 37 37 37 35 32 29 28 30 34 32 27 24 17 14 13 14 20 22 22 21 16 12 8 7 8 8 8 9 10 10 12 14 22 30 13 17 24 18 14 14 13 14
36 38 38 37 35 33 30 29 33 35 32 27 23 17 13 10 13 22 22 22 18 14 10 7 8 8 6 5 5 5 5 7 12 18 21 9 9 23 22 15 13 13 10
37 38 39 37 35 33 30 29 32 33 30 25 21 16 13 11 15 24 23 20 17 13 9 8 8 6 4 2 1 1 2 2 6 13 12 7 3 18 16 13 8 9 10
35 35 37 34 32 30 29 28 29 29 28 24 20 17 14 15 20 25 23 19 15 12 10 8 7 6 5 4 5 4 5 6 7 14 12 11 9 13 13 9 8 7 7
35 32 36 33 31 29 28 28 28 27 26 24 20 18 17 19 24 25 23 19 15 13 10 8 7 7 8 8 8 9 9 8 8 9 7 12 16 11 10 12 13 10 8
35 30 36 35 30 28 27 27 26 25 25 23 20 20 21 23 25 25 22 18 15 13 10 8 9 10 10 11 11 11 11 11 8 11 13 10 24 19 12 10 11 12 11
33 31 37 36 34 29 28 26 26 25 25 22 21 23 25 25 25 24 22 19 17 14 12 12 12 12 13 13 13 14 13 12 13 10 12 11 24 17 16 12 10 11 10
31 28 33 35 34 31 30 29 27 26 24 23 23 27 27 26 25 24 22 21 20 17 16 16 15 15 15 15 16 19 19 18 14 8 15 19 24 20 16 12 11 12 14
31 29 30 30 32 32 29 31 30 28 26 27 28 30 29 28 28 28 27 26 24 22 22 20 19 18 18 19 16 20 23 20 12 17 14 27 25 16 19 15 13 16 15
34 31 30 31 31 31 26 29 34 32 30 31 32 32 33 27 25 23 26 27 27 26 24 23 23 23 22 18 23 27 21 9 18 18 19 30 20 16 16 17 17 19 20
34 33 32 35 33 32 29 26 28 28 29 31 32 34 35 26 26 27 24 32 33 29 27 26 28 29 24 17 18 21 21 23 19 20 24 35 27 23 20 20 21 22 22
32 33 35 35 37 37 29 30 25 28 27 28 32 36 32 36 32 28 26 23 23 23 21 24 20 22 24 26 26 27 26 28 24 22 23 38 33 29 28 26 24 23 22
30 30 31 33 34 34 44 29 30 29 31 30 30 34 35 32 32 29 29 28 27 23 25 24 25 26 27 27 28 30 30 31 31 32 29 38 39 33 32 32 31 30 28
27 30 30 33 33 31 35 41 33 34 33 34 31 32 37 35 34 31 30 31 31 30 29 28 27 29 30 29 32 35 37 36 35 35 33 33 43 42 36 35 33 35 34
27 28 31 32 34 36 36 36 39 32 34 34 34 37 37 38 39 36 31 31 31 31 30 30 31 34 35 32 37 37 39 41 42 41 41 37 36 44 40 40 39 35 35
27 28 30 30 34 38 35 33 34 35 36 34 36 36 39 41 42 36 31 28 24 25 23 26 28 28 31 28 29 32 34 38 41 43 42 42 38 38 43 43 43 41 37
29 29 31 34 35 36 35 33 37 37 41 39 39 39 39 41 35 43 32 28 27 29 25 25 27 30 33 33 33 35 38 36 38 37 42 43 43 43 40 44 49 45 45
32 33 35 38 42 40 36 36 35 37 41 40 43 42 40 38 37 42 26 31 27 27 25 28 34 30 31 32 34 39 38 37 38 40 41 41 44 46 50 50 49 57 54
29 34 36 40 42 43 36 36 33 38 38 39 41 47 43 41 35 34 30 29 30 29 28 25 26 32 30 29 34 38 39 45 49 46 42 42 47 46 45 49 58 54 50
24 29 40 48 48 51 38 39 34 31 34 36 37 46 42 39 36 37 37 34 30 27 25 30 30 28 31 29 32 35 42 42 40 42 41 33 37 44 47 46 49 45 47
11 17 18 36 43 47 43 36 33 31 33 34 35 39 41 43 39 40 36 40 34 36 28 29 24 35 29 29 31 32 34 38 44 46 44 42 46 43 43 48 51 52 54
4 6 12 16 21 33 34 37 34 34 33 35 37 38 38 40 39 37 39 34 39 30 26 30 31 30 26 28 26 30 36 43 47 56 51 51 53 51 50 47 52 53 52
12 9 3 5 10 20 23 30 33 37 30 31 32 34 43 36 36 39 39 34 29 32 27 33 28 25 27 30 32 35 36 39 44 45 56 51 45 45 50 52 44 51 47
14 16 16 13 8 4 8 13 24 22 25 25 32 26 26 29 30 30 28 27 27 25 29 26 29 32 36 35 36 36 36 40 46 50 54 57 57 54 54 62 51 48 48
Wind_Direction_500mb
151 164 167 163 164 165 169 170 174 169 163 157 150 136 117 105 113 130 132 133 137 136 133 123 115 109 100 103 104 102 90 78 74 61 59 54 54 58 65 89 76 77 47
157 158 163 164 163 165 166 167 177 174 169 163 157 143 131 117 119 139 142 137 140 142 139 133 123 115 113 111 106 100 84 72 67 52 61 49 34 43 57 72 72 93 64
149 155 161 161 161 163 164 165 174 173 171 168 164 157 148 127 129 151 153 148 147 150 149 148 147 134 121 111 110 100 79 65 65 70 60 43 336 18 32 53 58 61 66
149 156 163 163 162 161 160 165 171 172 173 173 173 169 163 149 153 164 163 164 163 165 164 162 155 148 136 123 117 107 99 67 62 78 36 30 350 327 3 18 44 42 63
147 153 163 165 164 160 159 161 170 174 176 179 178 182 181 179 171 173 172 173 174 172 169 171 169 172 168 161 171 203 194 7 46 66 23 323 69 305 328 5 32 40 28
148 156 158 163 163 162 161 161 170 176 180 184 185 192 199 189 180 178 181 181 180 181 183 185 191 205 226 238 255 269 285 316 341 5 313 317 355 280 313 343 4 22 13
149 166 160 167 164 165 165 167 171 179 185 190 193 202 201 189 181 182 188 190 192 195 198 202 214 234 253 262 276 290 300 316 329 293 299 307 281 301 308 330 339 354 358
152 163 164 169 165 168 170 172 174 182 188 194 201 205 196 188 186 189 194 199 207 213 214 222 238 251 260 273 280 290 300 306 313 288 285 278 270 287 304 311 322 334 342
155 158 167 172 171 171 174 175 177 186 193 199 206 201 194 192 194 198 202 209 220 225 228 235 246 256 262 270 279 283 290 299 300 259 276 291 272 281 277 297 302 312 317
157 166 164 175 177 177 179 180 182 190 196 201 202 198 197 198 203 209 215 221 229 232 236 243 252 263 270 274 287 297 297 297 330 288 281 262 274 282 262 279 294 297 302
163 173 169 172 178 176 186 189 189 195 199 200 202 203 204 209 216 222 224 229 231 236 239 246 255 263 267 274 286 295 294 304 280 273 264 261 278 273 251 257 281 295 301
171 174 178 175 181 177 186 200 199 203 206 205 208 211 211 206 222 220 243 242 239 241 245 251 255 260 268 276 291 299 309 296 267 273 269 267 284 272 255 266 281 290 291
175 176 183 178 185 180 185 202 197 202 207 212 210 216 215 217 220 226 230 253 245 242 251 257 263 261 263 253 249 268 266 266 273 268 266 270 279 275 269 270 281 284 282
181 181 181 184 190 186 195 200 204 201 211 212 215 219 212 201 221 219 228 235 258 243 255 231 250 260 252 253 259 257 260 264 268 270 269 278 281 269 266 270 277 279 282
185 189 188 194 199 204 188 210 206 211 217 218 221 224 214 219 221 229 222 225 231 235 239 241 245 247 259 270 268 266 267 264 263 263 263 271 283 273 267 266 271 273 270
198 204 202 201 216 216 219 201 220 214 218 220 222 225 230 217 226 228 233 233 231 233 236 244 249 251 262 262 264 268 266 263 262 260 262 268 278 276 266 265 266 266 268
211 209 210 214 217 226 226 226 217 227 226 225 225 225 226 234 220 225 229 236 237 237 238 242 243 252 256 258 265 262 263 265 266 263 262 261 264 278 269 263 259 260 259
222 215 214 219 221 228 226 226 227 229 229 231 230 229 229 225 222 229 226 229 238 240 236 245 251 256 260 267 270 273 272 272 270 267 264 263 263 262 271 262 262 256 254
231 230 226 223 223 230 240 232 235 231 235 232 230 229 232 229 224 220 220 233 234 238 238 253 258 258 266 267 271 272 270 273 274 272 269 270 269 263 257 266 268 261 254
239 238 227 223 226 220 223 240 229 235 234 233 232 228 223 224 218 229 217 223 227 241 252 256 259 261 269 274 274 277 277 270 269 270 271 270 268 267 269 265 258 266 263
245 237 236 229 221 229 222 224 234 231 236 234 233 228 219 223 218 225 220 235 236 238 245 252 257 266 268 272 276 281 281 280 278 272 271 270 270 272 270 268 267 261 259
246 241 239 238 231 229 225 227 228 239 239 239 236 232 220 219 214 213 219 222 233 239 239 249 253 254 260 267 271 284 287 289 279 281 259 266 278 270 272 270 269 264 261
234 234 241 242 234 227 218 231 232 225 232 231 229 226 223 218 216 219 222 214 223 239 243 262 254 260 257 259 260 272 284 285 306 296 293 285 290 278 274 272 266 267 268
314 277 255 230 229 218 223 218 232 232 239 233 231 230 226 226 223 221 220 220 223 222 233 232 243 245 264 269 272 267 269 277 286 295 292 287 281 285 281 270 269 267 267
38 33 4 205 213 204 221 226 229 242 240 238 238 229 222 220 218 214 216 210 217 223 229 231 223 238 251 263 270 277 276 277 277 272 286 293 292 288 289 282 282 277 280
59 58 64 70 83 160 226 244 221 235 242 244 230 241 239 224 218 207 207 206 216 220 224 233 253 256 261 255 259 265 275 278 281 284 286 290 290 291 287 283 285 280 284
Wind_Speed_850mb
29 39 40 35 36 33 29 25 23 28 29 28 27 23 20 19 19 23 26 29 28 24 20 16 14 13 12 13 14 16 16 15 17 20 22 24 22 21 21 21 29 5 9
37 37 37 37 37 34 30 26 26 32 32 28 25 19 16 16 18 22 25 25 23 20 16 12 9 10 10 11 12 13 13 14 15 19 21 24 27 21 19 18 15 11 11
36 37 37 37 35 32 29 28 30 34 32 27 24 17 14 13 14 20 22 22 21 16 12 8 7 8 8 8 9 10 10 12 14 22 30 13 17 24 18 14 14 13 14
36 38 38 37 35 33 30 29 33 35 32 27 23 17 13 10 13 22 22 22 18 14 10 7 8 8 6 5 5 5 5 7 12 18 21 9 9 23 22 15 13 13 10
37 38 39 37 35 33 30 29 32 33 30 25 21 16 13 11 15 24 23 20 17 13 9 8 8 6 4 2 1 1 2 2 6 13 12 7 3 18 16 13 8 9 10
35 35 37 34 32 30 29 28 29 29 28 24 20 17 14 15 20 25 23 19 15 12 10 8 7 6 5 4 5 4 5 6 7 14 12 11 9 13 13 9 8 7 7
35 32 36 33 31 29 28 28 28 27 26 24 20 18 17 19 24 25 23 19 15 13 10 8 7 7 8 8 8 9 9 8 8 9 7 12 16 11 10 12 13 10 8
35 30 36 35 30 28 27 27 26 25 25 23 20 20 21 23 25 25 22 18 15 13 10 8 9 10 10 11 11 11 11 11 8 11 13 10 24 19 12 10 11 12 11
33 31 37 36 34 29 28 26 26 25 25 22 21 23 25 25 25 24 22 19 17 14 12 12 12 12 13 13 13 14 13 12 13 10 12 11 24 17 16 12 10 11 10
31 28 33 35 34 31 30 29 27 26 24 23 23 27 27 26 25 24 22 21 20 17 16 16 15 15 15 15 16 19 19 18 14 8 15 19 24 20 16 12 11 12 14
31 29 30 30 32 32 29 31 30 28 26 27 28 30 29 28 28 28 27 26 24 22 22 20 19 18 18 19 16 20 23 20 12 17 14 27 25 16 19 15 13 16 15
34 31 30 31 31 31 26 29 34 32 30 31 32 32 33 27 25 23 26 27 27 26 24 23 23 23 22 18 23 27 21 9 18 18 19 30 20 16 16 17 17 19 20
34 33 32 35 33 32 29 26 28 28 29 31 32 34 35 26 26 27 24 32 33 29 27 26 28 29 24 17 18 21 21 23 19 20 24 35 27 23 20 20 21 22 22
32 33 35 35 37 37 29 30 25 28 27 28 32 36 32 36 32 28 26 23 23 23 21 24 20 22 24 26 26 27 26 28 24 22 23 38 33 29 28 26 24 23 22
30 30 31 33 34 34 44 29 30 29 31 30 30 34 35 32 32 29 29 28 27 23 25 24 25 26 27 27 28 30 30 31 31 32 29 38 39 33 32 32 31 30 28
27 30 30 33 33 31 35 41 33 34 33 34 31 32 37 35 34 31 30 31 31 30 29 28 27 29 30 29 32 35 37 36 35 35 33 33 43 42 36 35 33 35 34
27 28 31 32 34 36 36 36 39 32 34 34 34 37 37 38 39 36 31 31 31 31 30 30 31 34 35 32 37 37 39 41 42 41 41 37 36 44 40 40 39 35 35
27 28 30 30 34 38 35 33 34 35 36 34 36 36 39 41 42 36 31 28 24 25 23 26 28 28 31 28 29 32 34 38 41 43 42 42 38 38 43 43 43 41 37
29 29 31 34 35 36 35 33 37 37 41 39 39 39 39 41 35 43 32 28 27 29 25 25 27 30 33 33 33 35 38 36 38 37 42 43 43 43 40 44 49 45 45
32 33 35 38 42 40 36 36 35 37 41 40 43 42 40 38 37 42 26 31 27 27 25 28 34 30 31 32 34 39 38 37 38 40 41 41 44 46 50 50 49 57 54
29 34 36 40 42 43 36 36 33 38 38 39 41 47 43 41 35 34 30 29 30 29 28 25 26 32 30 29 34 38 39 45 49 46 42 42 47 46 45 49 58 54 50
24 29 40 48 48 51 38 39 34 31 34 36 37 46 42 39 36 37 37 34 30 27 25 30 30 28 31 29 32 35 42 42 40 42 41 33 37 44 47 46 49 45 47
11 17 18 36 43 47 43 36 33 31 33 34 35 39 41 43 39 40 36 40 34 36 28 29 24 35 29 29 31 32 34 38 44 46 44 42 46 43 43 48 51 52 54
4 6 12 16 21 33 34 37 34 34 33 35 37 38 38 40 39 37 39 34 39 30 26 30 31 30 26 28 26 30 36 43 47 56 51 51 53 51 50 47 52 53 52
12 9 3 5 10 20 23 30 33 37 30 31 32 34 43 36 36 39 39 34 29 32 27 33 28 25 27 30 32 35 36 39 44 45 56 51 45 45 50 52 44 51 47
14 16 16 13 8 4 8 13 24 22 25 25 32 26 26 29 30 30 28 27 27 25 29 26 29 32 36 35 36 36 36 40 46 50 54 57 57 54 54 62 51 48 48
Wind_Direction_850mb
151 164 167 163 164 165 169 170 174 169 163 157 150 136 117 105 113 130 132 133 137 136 133 123 115 109 100 103 104 102 90 78 74 61 59 54 54 58 65 89 76 77 47
157 158 163 164 163 165 166 167 177 174 169 163 157 143 131 117 119 139 142 137 140 142 139 133 123 115 113 111 106 100 84 72 67 52 61 49 34 43 57 72 72 93 64
149 155 161 161 161 163 164 165 174 173 171 168 164 157 148 127 129 151 153 148 147 150 149 148 147 134 121 111 110 100 79 65 65 70 60 43 336 18 32 53 58 61 66
149 156 163 163 162 161 160 165 171 172 173 173 173 169 163 149 153 164 163 164 163 165 164 162 155 148 136 123 117 107 99 67 62 78 36 30 350 327 3 18 44 42 63
147 153 163 165 164 160 159 161 170 174 176 179 178 182 181 179 171 173 172 173 174 172 169 171 169 172 168 161 171 203 194 7 46 66 23 323 69 305 328 5 32 40 28
148 156 158 163 163 162 161 161 170 176 180 184 185 192 199 189 180 178 181 181 180 181 183 185 191 205 226 238 255 269 285 316 341 5 313 317 355 280 313 343 4 22 13
149 166 160 167 164 165 165 167 171 179 185 190 193 202 201 189 181 182 188 190 192 195 198 202 214 234 253 262 276 290 300 316 329 293 299 307 281 301 308 330 339 354 358
152 163 164 169 165 168 170 172 174 182 188 194 201 205 196 188 186 189 194 199 207 213 214 222 238 251 260 273 280 290 300 306 313 288 285 278 270 287 304 311 322 334 342
155 158 167 172 171 171 174 175 177 186 193 199 206 201 194 192 194 198 202 209 220 225 228 235 246 256 262 270 279 283 290 299 300 259 276 291 272 281 277 297 302 312 317
157 166 164 175 177 177 179 180 182 190 196 201 202 198 197 198 203 209 215 221 229 232 236 243 252 263 270 274 287 297 297 297 330 288 281 262 274 282 262 279 294 297 302
163 173 169 172 178 176 186 189 189 195 199 200 202 203 204 209 216 222 224 229 231 236 239 246 255 263 267 274 286 295 294 304 280 273 264 261 278 273 251 257 281 295 301
171 174 178 175 181 177 186 200 199 203 206 205 208 211 211 206 222 220 243 242 239 241 245 251 255 260 268 276 291 299 309 296 267 273 269 267 284 272 255 266 281 290 291
175 176 183 178 185 180 185 202 197 202 207 212 210 216 215 217 220 226 230 253 245 242 251 257 263 261 263 253 249 268 266 266 273 268 266 270 279 275 269 270 281 284 282
181 181 181 184 190 186 195 200 204 201 211 212 215 219 212 201 221 219 228 235 258 243 255 231 250 260 252 253 259 257 260 264 268 270 269 278 281 269 266 270 277 279 282
185 189 188 194 199 204 188 210 206 211 217 218 221 224 214 219 221 229 222 225 231 235 239 241 245 247 259 270 268 266 267 264 263 263 263 271 283 273 267 266 271 273 270
198 204 202 201 216 216 219 201 220 214 218 220 222 225 230 217 226 228 233 233 231 233 236 244 249 251 262 262 264 268 266 263 262 260 262 268 278 276 266 265 266 266 268
211 209 210 214 217 226 226 226 217 227 226 225 225 225 226 234 220 225 229 236 237 237 238 242 243 252 256 258 265 262 263 265 266 263 262 261 264 278 269 263 259 260 259
222 215 214 219 221 228 226 226 227 229 229 231 230 229 229 225 222 229 226 229 238 240 236 245 251 256 260 267 270 273 272 272 270 267 264 263 263 262 271 262 262 256 254
231 230 226 223 223 230 240 232 235 231 235 232 230 229 232 229 224 220 220 233 234 238 238 253 258 258 266 267 271 272 270 273 274 272 269 270 269 263 257 266 268 261 254
239 238 227 223 226 220 223 240 229 235 234 233 232 228 223 224 218 229 217 223 227 241 252 256 259 261 269 274 274 277 277 270 269 270 271 270 268 267 269 265 258 266 263
245 237 236 229 221 229 222 224 234 231 236 234 233 228 219 223 218 225 220 235 236 238 245 252 257 266 268 272 276 281 281 280 278 272 271 270 270 272 270 268 267 261 259
246 241 239 238 231 229 225 227 228 239 239 239 236 232 220 219 214 213 219 222 233 239 239 249 253 254 260 267 271 284 287 289 279 281 259 266 278 270 272 270 269 264 261
234 234 241 242 234 227 218 231 232 225 232 231 229 226 223 218 216 219 222 214 223 239 243 262 254 260 257 259 260 272 284 285 306 296 293 285 290 278 274 272 266 267 268
314 277 255 230 229 218 223 218 232 232 239 233 231 230 226 226 223 221 220 220 223 222 233 232 243 245 264 269 272 267 269 277 286 295 292 287 281 285 281 270 269 267 267
38 33 4 205 213 204 221 226 229 242 240 238 238 229 222 220 218 214 216 210 217 223 229 231 223 238 251 263 270 277 276 277 277 272 286 293 292 288 289 282 282 277 280
59 58 64 70 83 160 226 244 221 235 242 244 230 241 239 224 218 207 207 206 216 220 224 233 253 256 261 255 259 265 275 278 281 284 286 290 290 291 287 283 285 280 284